Terug naar catalogus

ORBCOMM FM 107

ActiefCommunicatieLEO
NORAD 40087·PAYLOAD·🇺🇸 United States

Gelanceerd Jul 14, 2014 vanaf Cape Canaveral Space Force Station

Loading…

Volgende Passages (komende 24 uur)

TLE

VersSource: Space-Track

Epoch: Sep 14, 2026, 09:45 UTC

1 40087U 14040B   26257.40662706  .00000294  00000-0  98101-4 0  9999
2 40087  47.0059  30.3881 0001499 217.6960 142.3822 14.59015387647454

Volg ORBCOMM FM 107 in realtime met AllMySat

Download on the App Store